COSMOS 2251 DEB

Satellite information

Favourite Embed

Satellite Type and Status

DEBRISIN ORBIT

Key statistics

Satellite COSMOS 2251 DEB at a glance.

Uptime

11815

Days in orbit

Revolutions

≈ 14.4

Per day

Orbit

LEO

Low Earth Orbit

Inclination

74.0

Latest

Satellite identification and parameters

Extended collection of information and parameters for COSMOS 2251 DEB.

Object identification

Identified? True

Debris? True

Object name: COSMOS 2251 DEB

International designator: 1993-036ATY

Object number (NORAD): 35885

Object ID (CCSDS): 35885

Country: COMMONWEALTH OF INDEPENDENT STATES (CIS)

Current information (Y/N): Y

RCS size: SMALL

Orbital parameters

Period: 100.182 minutes

Inclination: 74.03 deg

SMA: 7145.312 km

Apoapsis: 783.541 km

Periapsis: 750.812 km

RAAN: 35.5799 deg

Eccentricy: 0.00229025

Argument of periapsis: 134.4181 deg

Mean anomaly: 225.8852 deg

Mean motion: 14.37378055 rev/day

Mean motion (dot): 0.00001459 rev/day2

B* drag term: 0.00049569404 1/REarth

Two-line elements (TLE)

Creation date: Oct. 19, 2025, 10:30 a.m.

Reference frame: TEME

Reference center: EARTH

Epoch: Oct. 18, 2025, 11:52 p.m. UTC

TLE line 0: 0 COSMOS 2251 DEB

TLE line 1: 1 35885U 93036ATY 25291.99485416 .00001459 00000-0 49569-3 0 9990

TLE line 2: 2 35885 74.0300 35.5799 0022903 134.4181 225.8852 14.37378055642299

Live tracking on map

Real-time ground track for satellite COSMOS 2251 DEB.

In-orbit conjunctions

A list of the most updated potential collisions computed for object COSMOS 2251 DEB.

Target Orbit TCA Probability of collision Miss distance Type
NOAA 6 SSO 2024-12-13 06:08:56 0.0001251353 686.0 (m) PAYLOAD
FENGYUN 1C DEB SSO 2024-09-06 15:07:04 0.0001094173 188.0 (m) DEBRIS

Associated space launch

Military communications satellite. Destroyed in a collision with Iridium 33.

COSMOS 2251 DEB was lifted into orbit during the mission ‘Kosmos-3M | Strela-2M 51’, on board a Kosmos-3M space rocket.

The launch took place on June 16, 1993, 4:17 a.m. from 132/1 (132L).

For more information about the launch, click the button.

Launch to space Kosmos-3M | Strela-2M 51
Kosmos-3M | Strela-2M 51

Agency: N/A

Status: Launch Successful

Launch date: June 16, 1993, 4:17 a.m. UTC

Rocket: Kosmos-3M

Launch pad: 132/1 (132L)

Location: Plesetsk Cosmodrome, Russian Federation

...

Latest news about this satellite

There are no fresh news available about this satellite. Check back as we update our databases every day.


Newsletter sign-up

Weekly statistics, charts and insights to help you stay on top of the space industry.